Simultaneous Nadir Overpasses (SNOs) Predictions

Prediction of SNOs between METOP-B and TERRA Satellite Orbit:

Table of predicted SNOs for the next 14.0 days since TLE Epoch: 8/3/2019
Index Date (METOP-B) Time (METOP-B) Lat,Lon (METOP-B) SZA (METOP-B ) Date (TERRA) Time (TERRA) Lat,Lon (TERRA) SZA (TERRA ) Distance(km) Time Diff (sec)
1 08/03/2019 11:00:16 -81.31,-117.98 113.51 08/03/2019 11:00:18 -81.30,-117.89 113.51 1.66 2
2 08/03/2019 11:50:56 81.31, 49.80 66.56 08/03/2019 11:49:44 81.31, 49.89 66.53 1.49 72
3 08/06/2019 05:43:58 81.31, 140.99 67.23 08/06/2019 05:45:06 81.30, 140.95 67.25 0.74 68
4 08/06/2019 06:34:37 -81.31, -51.10 112.70 08/06/2019 06:34:32 -81.32, -51.13 112.70 0.76 5
5 08/09/2019 01:18:19 81.31,-152.56 68.02 08/09/2019 01:19:20 81.30,-152.71 68.03 2.68 61
6 08/09/2019 02:08:58 -81.32, 15.38 111.90 08/09/2019 02:08:46 -81.32, 15.23 111.92 2.41 12
7 08/11/2019 20:52:41 81.31, -86.13 68.86 08/11/2019 20:53:34 81.31, -86.02 68.90 1.98 53
8 08/11/2019 21:43:21 -81.31, 81.45 111.11 08/11/2019 21:43:01 -81.31, 81.56 111.11 2.01 20
9 08/14/2019 16:27:03 81.31, -19.72 69.72 08/14/2019 16:27:49 81.30, -19.73 69.74 0.41 46




NCC Satellite Simultaneous Nadir Overpasses (SNOs) Prediction Service
